Internet_Ratzdorf_Datenexport Zeitraum: 01.01.2024 24:00 bis 19.04.2024 24:00
Ratzdorf 1h_MW
Zeitpunkt;Tl [�C];Tw [�C];LF [�S/cm 25�C];pH [-];O2 [mg/l];OT [%];NO3-N [mg/l];UV [1/m];TR_F [TEF];Chlg [�g/l];Ckie [�g/l];Cgr [�g/l];Cbl [�g/l]
02.01.2024 00:00;5,8;6,40;356,0;7,49;14,74;119,93;2,17;35,72;20,28;21,83;2,66;6,30;12,5
02.01.2024 01:00;5,7;6,40;356,0;7,49;14,73;119,80;2,19;35,98;20,32;21,89;2,65;6,32;12,6
02.01.2024 02:00;5,3;6,40;356,4;7,49;14,73;119,85;2,17;35,75;20,58;21,93;2,64;6,34;12,6
02.01.2024 03:00;5,3;6,40;357,0;7,49;14,74;119,93;2,18;35,84;20,67;22,05;2,65;6,37;12,7
02.01.2024 04:00;5,1;6,40;357,5;7,49;14,73;119,87;2,18;35,81;20,73;22,16;2,64;6,43;12,7
02.01.2024 05:00;3,9;6,40;358,6;7,49;14,73;119,84;2,17;35,65;20,61;22,27;2,66;6,47;12,8
02.01.2024 06:00;3,0;6,40;359,8;7,50;14,75;119,98;2,17;35,72;20,63;22,38;2,67;6,50;12,8
02.01.2024 07:00;2,4;6,34;361,0;7,50;14,75;119,83;2,17;35,55;20,53;22,46;2,70;6,56;12,9
02.01.2024 08:00;2,2;6,30;362,0;7,50;14,74;119,62;2,17;35,59;20,49;22,45;2,72;6,65;12,8
02.01.2024 09:00;2,3;#;#;#;#;#;#;#;#;#;#;#;#
02.01.2024 10:00;3,0;#;#;#;#;#;#;#;#;#;#;#;#
02.01.2024 11:00;4,1;#;#;#;#;#;#;#;#;#;#;#;#
02.01.2024 12:00;4,7;#;#;#;#;#;#;#;#;#;#;#;#
02.01.2024 13:00;4,9;#;#;#;#;#;#;#;#;#;#;#;#
02.01.2024 14:00;5,0;6,00;361,0;7,47;14,77;118,95;2,19;36,95;27,95;25,05;2,89;7,50;14,2
02.01.2024 15:00;4,9;6,00;361,4;7,47;14,78;119,02;2,22;36,09;25,07;24,09;2,84;7,15;13,7
02.01.2024 16:00;4,9;6,00;361,1;7,47;14,79;119,14;2,23;35,83;24,79;23,74;2,69;7,22;13,4
02.01.2024 17:00;4,8;6,00;361,0;7,48;14,81;119,28;2,21;36,13;26,37;23,92;2,60;7,46;13,5
02.01.2024 18:00;4,9;6,00;361,0;7,47;14,79;119,15;2,22;36,10;25,97;23,86;2,54;7,58;13,4
02.01.2024 19:00;5,0;6,00;359,7;7,48;14,81;119,32;2,22;35,25;24,28;23,47;2,38;7,60;13,2
02.01.2024 20:00;5,1;6,00;359,5;7,48;14,83;119,42;2,22;34,88;23,69;23,29;2,32;7,61;13,1
02.01.2024 21:00;5,3;6,00;359,6;7,47;14,74;118,76;2,22;35,81;26,23;24,00;2,34;7,93;13,5
02.01.2024 22:00;5,5;6,00;361,7;7,46;14,65;118,00;2,21;36,97;27,53;24,46;2,33;8,20;13,7
02.01.2024 23:00;6,2;6,00;363,6;7,46;14,63;117,82;2,21;37,17;28,54;24,65;2,27;8,36;13,9
03.01.2024 00:00;6,7;6,00;363,2;7,47;14,63;117,86;2,24;38,51;32,94;25,88;2,35;8,86;14,5
03.01.2024 01:00;6,9;6,00;362,0;7,48;14,68;118,23;2,22;37,24;28,98;24,86;2,28;8,48;14,0
03.01.2024 02:00;7,4;6,00;362,4;7,48;14,67;118,17;2,21;35,51;24,88;23,52;2,20;7,98;13,3
03.01.2024 03:00;8,0;6,07;363,4;7,48;14,63;118,07;2,20;34,71;23,49;22,99;2,13;7,82;13,0
03.01.2024 04:00;8,3;6,10;363,7;7,48;14,60;117,89;2,18;34,30;22,89;22,73;2,08;7,75;12,9
03.01.2024 05:00;8,8;6,10;364,0;7,48;14,58;117,73;2,19;34,25;22,45;22,48;2,03;7,71;12,8
03.01.2024 06:00;8,8;6,10;364,0;7,48;14,56;117,54;2,18;33,91;22,24;22,28;2,00;7,66;12,7
03.01.2024 07:00;8,6;6,19;364,0;7,49;14,55;117,73;2,19;33,99;22,14;22,09;1,97;7,62;12,6
03.01.2024 08:00;8,4;6,20;363,2;7,49;14,53;117,65;2,19;33,91;22,20;22,00;1,97;7,59;12,6
03.01.2024 09:00;9,0;6,20;362,0;7,49;14,54;117,68;2,21;34,16;22,15;21,85;1,94;7,61;12,5
03.01.2024 10:00;9,7;6,20;362,7;7,50;14,54;117,70;2,19;33,96;22,34;21,81;1,95;7,60;12,5
03.01.2024 11:00;10,7;6,25;363,9;7,50;14,52;117,69;2,19;34,42;22,96;22,07;1,87;7,89;12,6
03.01.2024 12:00;11,4;6,32;365,4;7,50;14,52;117,94;2,20;34,83;23,61;22,35;1,76;8,24;12,6
03.01.2024 13:00;11,2;6,40;366,4;7,50;14,50;117,97;2,20;34,86;23,69;22,30;1,71;8,28;12,6
03.01.2024 14:00;10,9;6,49;367,1;7,50;14,46;117,91;2,20;34,72;23,40;22,08;1,71;8,15;12,6
03.01.2024 15:00;11,1;6,51;368,0;7,50;14,45;117,88;2,18;34,29;22,72;21,78;1,70;8,01;12,5
03.01.2024 16:00;11,0;6,60;368,0;7,51;14,44;118,09;2,19;34,11;22,10;21,49;1,67;7,90;12,3
03.01.2024 17:00;10,3;6,60;368,4;7,51;14,43;117,97;2,19;33,93;21,77;21,21;1,63;7,73;12,3
03.01.2024 18:00;9,0;6,63;369,0;7,51;14,44;118,11;2,18;33,77;21,58;21,22;1,64;7,80;12,3
03.01.2024 19:00;8,5;6,70;370,3;7,51;14,42;118,20;2,18;33,69;21,31;21,09;1,68;7,71;12,2
03.01.2024 20:00;8,1;6,70;371,0;7,51;14,40;118,05;2,19;33,78;21,13;21,01;1,64;7,74;12,2
03.01.2024 21:00;8,4;6,70;371,0;7,51;14,36;117,69;2,19;33,72;21,07;20,96;1,65;7,72;12,2
03.01.2024 22:00;8,1;6,70;370,9;7,52;14,33;117,45;2,18;33,89;21,18;20,94;1,63;7,72;12,2
03.01.2024 23:00;8,4;6,79;370,7;7,52;14,34;117,82;2,19;33,97;21,32;20,92;1,60;7,76;12,2
04.01.2024 00:00;8,5;6,80;371,0;7,52;14,33;117,78;2,20;34,02;21,42;20,90;1,57;7,77;12,3
04.01.2024 01:00;8,7;6,80;370,8;7,52;14,34;117,84;2,20;34,17;21,60;20,96;1,56;7,80;12,3
04.01.2024 02:00;8,7;6,80;370,8;7,52;14,33;117,78;2,19;34,23;21,69;21,03;1,55;7,85;12,4
04.01.2024 03:00;8,3;6,80;371,0;7,52;14,34;117,84;2,18;34,32;21,95;21,09;1,52;7,92;12,5
04.01.2024 04:00;8,1;6,80;372,0;7,52;14,34;117,85;2,17;34,55;22,21;21,13;1,49;7,99;12,5
04.01.2024 05:00;7,8;6,80;372,0;7,52;14,34;117,81;2,18;34,80;22,53;21,22;1,50;8,02;12,6
04.01.2024 06:00;7,8;6,80;371,4;7,52;14,34;117,84;2,20;34,97;22,79;21,27;1,51;8,03;12,6
04.01.2024 07:00;7,4;6,80;370,2;7,53;14,36;118,03;2,19;34,99;23,07;21,32;1,51;8,05;12,7
04.01.2024 08:00;7,5;6,80;368,9;7,53;14,36;118,03;2,20;35,08;23,57;21,47;1,51;8,13;12,8
04.01.2024 09:00;7,5;6,80;367,5;7,53;14,37;118,11;2,19;35,42;24,44;22,77;1,51;8,29;13,0
04.01.2024 10:00;7,5;6,80;366,4;7,53;14,38;118,13;2,20;36,01;26,26;23,21;1,52;8,50;13,2
04.01.2024 11:00;6,5;6,80;365,4;7,53;14,39;118,24;2,22;36,71;28,38;23,65;1,50;8,71;13,4
04.01.2024 12:00;5,6;6,80;365,0;7,53;14,40;118,36;2,24;37,07;28,91;23,70;1,45;8,80;13,4
04.01.2024 13:00;5,3;6,80;364,5;7,52;14,39;118,27;2,24;36,87;28,80;23,56;1,41;8,79;13,4
04.01.2024 14:00;4,6;6,80;364,5;7,52;14,40;118,34;2,25;37,02;28,71;23,37;1,34;8,74;13,3
04.01.2024 15:00;4,0;6,80;363,7;7,52;14,38;118,14;2,24;37,01;28,66;23,29;1,31;8,74;13,2
04.01.2024 16:00;3,6;6,80;362,8;7,51;14,39;118,27;2,24;36,94;29,18;23,39;1,28;8,80;13,3
04.01.2024 17:00;3,3;6,80;362,0;7,51;14,42;118,48;2,25;37,52;29,90;23,63;1,24;8,96;13,4
04.01.2024 18:00;2,2;6,73;361,7;7,51;14,45;118,49;2,27;37,58;30,01;23,75;1,24;9,06;13,5
04.01.2024 19:00;1,4;6,70;361,0;7,52;14,50;118,85;2,27;37,53;29,97;23,82;1,26;9,14;13,4
04.01.2024 20:00;1,0;6,61;360,2;7,52;14,50;118,55;2,26;37,59;30,22;23,88;1,25;9,19;13,4
04.01.2024 21:00;0,5;6,60;359,4;7,52;14,60;119,34;2,26;37,87;30,84;24,07;1,25;9,26;13,6
04.01.2024 22:00;0,5;6,50;358,5;7,52;14,63;119,32;2,27;38,46;31,63;24,30;1,27;9,34;13,7
04.01.2024 23:00;0,6;6,50;357,6;7,51;14,59;118,99;2,25;38,71;32,57;24,51;1,29;9,39;13,8
05.01.2024 00:00;0,6;6,41;356,1;7,51;14,71;119,74;2,25;39,31;33,62;24,84;1,30;9,53;14,0
05.01.2024 01:00;0,7;6,40;355,0;7,51;14,77;120,13;2,27;39,99;34,65;25,17;1,32;9,66;14,2
05.01.2024 02:00;0,6;6,30;355,2;7,51;14,77;119,90;2,28;40,62;35,76;25,52;1,33;9,80;14,4
05.01.2024 03:00;0,5;6,30;356,4;7,51;14,84;120,39;2,26;41,50;37,14;25,98;1,36;9,97;14,6
05.01.2024 04:00;0,3;6,22;357,0;7,51;14,81;119,97;2,25;42,41;38,76;26,48;1,38;10,16;14,9
05.01.2024 05:00;0,2;6,20;356,0;7,50;14,84;120,14;2,26;43,38;39,91;26,85;1,42;10,26;15,2
05.01.2024 06:00;0,2;6,11;352,8;7,50;14,88;120,21;2,25;44,70;41,91;27,32;1,45;10,33;15,5
05.01.2024 07:00;0,3;6,10;347,9;7,50;14,95;120,76;2,25;46,81;44,67;28,32;1,50;10,75;16,1
05.01.2024 08:00;0,4;6,06;343,2;7,50;14,90;120,24;2,23;48,63;47,21;29,26;1,57;11,11;16,6
05.01.2024 09:00;0,3;#;#;#;#;#;#;#;#;#;#;#;#
05.01.2024 10:00;0,1;#;#;#;#;#;#;#;#;#;#;#;#
05.01.2024 11:00;0,2;#;#;#;#;#;#;#;#;#;#;#;#
05.01.2024 12:00;0,3;#;#;#;#;#;#;#;#;#;#;#;#
05.01.2024 13:00;0,5;5,90;318,8;7,48;15,02;120,64;2,19;55,12;53,75;31,90;3,36;11,15;17,8
05.01.2024 14:00;0,9;5,90;316,0;7,49;15,01;120,60;2,17;54,88;52,35;31,84;3,56;10,65;17,7
05.01.2024 15:00;1,1;5,90;314,3;7,49;15,10;121,30;2,16;54,29;51,30;31,75;3,92;10,22;17,8
05.01.2024 16:00;1,2;5,90;313,5;7,49;15,12;121,45;2,15;53,71;49,25;30,99;4,10;9,55;17,6
05.01.2024 17:00;1,3;5,90;314,1;7,49;15,10;121,29;2,14;52,70;47,30;30,37;4,16;9,15;17,4
05.01.2024 18:00;1,3;5,90;314,0;7,49;15,11;121,41;2,15;52,15;45,91;30,00;4,17;8,87;17,3
05.01.2024 19:00;1,3;5,90;313,6;7,49;15,15;121,69;2,13;51,26;44,14;29,66;4,18;8,61;17,2
05.01.2024 20:00;1,3;5,90;314,0;7,49;15,15;121,70;2,14;50,40;42,51;29,28;4,14;8,41;17,0
05.01.2024 21:00;1,2;5,90;314,3;7,49;15,15;121,75;2,12;49,38;41,02;28,90;4,09;8,18;16,8
05.01.2024 22:00;1,1;5,90;314,9;7,50;15,14;121,67;2,12;48,55;39,72;28,55;4,07;7,87;16,7
05.01.2024 23:00;0,9;5,90;315,2;7,50;15,17;121,89;2,11;47,84;38,66;28,31;4,04;7,67;16,5
06.01.2024 00:00;0,6;5,89;316,1;7,50;15,09;121,16;2,11;46,78;37,39;27,88;4,02;7,46;16,4
06.01.2024 01:00;0,4;5,80;316,3;7,50;15,19;121,74;2,12;46,84;38,06;27,89;4,05;7,42;16,4
06.01.2024 02:00;0,3;5,80;317,1;7,50;15,17;121,56;2,14;47,01;39,27;28,12;4,08;7,50;16,5
06.01.2024 03:00;0,3;5,80;318,0;7,50;15,13;121,23;2,13;45,98;37,85;27,59;4,04;7,28;16,3
06.01.2024 04:00;0,3;5,80;318,3;7,50;15,22;122,01;2,15;45,53;36,59;27,17;3,98;7,15;16,0
06.01.2024 05:00;0,3;5,80;319,1;7,50;15,20;121,77;2,14;44,78;35,84;26,84;3,93;7,04;15,9
06.01.2024 06:00;0,2;5,70;320,4;7,50;15,23;121,78;2,16;44,57;35,51;26,69;3,90;6,99;15,8
06.01.2024 07:00;0,1;5,70;322,4;7,50;15,21;121,60;2,14;44,00;35,18;26,67;3,89;7,05;15,7
06.01.2024 08:00;0,2;5,70;324,3;7,51;15,20;121,49;2,16;43,66;35,00;26,67;3,88;7,08;15,7
06.01.2024 09:00;0,4;5,70;325,1;7,51;15,25;121,95;2,17;43,95;35,90;26,89;3,94;7,11;15,8
06.01.2024 10:00;0,5;5,70;326,0;7,51;15,20;121,54;2,17;43,86;35,73;26,79;3,94;7,08;15,8
06.01.2024 11:00;0,4;5,63;325,2;7,51;15,24;121,61;2,18;44,13;36,40;26,95;3,94;7,13;15,9
06.01.2024 12:00;0,5;5,60;324,0;7,51;15,28;121,87;2,19;44,56;37,26;27,15;3,97;7,16;16,0
06.01.2024 13:00;0,4;5,60;322,9;7,51;15,34;122,29;2,20;45,55;38,57;27,55;4,00;7,30;16,2
06.01.2024 14:00;0,2;5,60;321,5;7,51;15,27;121,77;2,19;46,12;39,93;27,97;4,07;7,38;16,5
06.01.2024 15:00;0,0;5,60;319,3;7,51;15,33;122,21;2,20;47,43;41,51;28,47;4,14;7,51;16,8
06.01.2024 16:00;-0,2;5,51;317,2;7,51;15,37;122,26;2,19;48,54;43,16;29,03;4,20;7,70;17,1
06.01.2024 17:00;-0,3;5,50;315,5;7,50;15,33;121,95;2,17;49,46;44,10;29,30;4,27;7,71;17,3
06.01.2024 18:00;-0,5;5,50;314,0;7,51;15,44;122,79;2,18;50,07;44,81;29,60;4,32;7,79;17,5
06.01.2024 19:00;-0,6;5,42;313,0;7,51;15,40;122,27;2,18;50,20;44,81;29,63;4,40;7,72;17,5
06.01.2024 20:00;-0,6;5,40;310,8;7,51;15,49;122,86;2,17;50,37;44,77;29,64;4,44;7,69;17,5
06.01.2024 21:00;-0,8;5,39;309,6;7,51;15,45;122,51;2,14;49,90;44,16;29,45;4,43;7,61;17,4
06.01.2024 22:00;-1,1;5,30;308,7;7,51;15,48;122,51;2,14;49,88;43,27;29,22;4,42;7,54;17,3
06.01.2024 23:00;-1,1;5,30;307,6;7,51;15,53;122,92;2,14;49,65;42,51;28,89;4,38;7,47;17,0
07.01.2024 00:00;-1,3;5,20;307,0;7,52;15,54;122,66;2,12;48,99;41,57;28,55;4,33;7,36;16,9
07.01.2024 01:00;-1,3;5,17;307,0;7,52;15,61;123,15;2,13;48,71;40,75;28,34;4,32;7,26;16,8
07.01.2024 02:00;-1,3;5,10;307,8;7,52;15,58;122,64;2,14;47,92;39,50;27,91;4,29;7,10;16,5
07.01.2024 03:00;-1,5;5,06;308,1;7,52;15,65;123,09;2,12;47,39;38,71;27,64;4,28;6,99;16,4
07.01.2024 04:00;-1,9;5,00;309,3;7,52;15,66;122,97;2,14;46,85;37,56;27,34;4,25;6,87;16,2
07.01.2024 05:00;-2,4;4,94;310,7;7,53;15,68;122,97;2,14;46,31;36,50;27,12;4,19;6,84;16,1
07.01.2024 06:00;-2,9;4,90;312,1;7,53;15,70;123,00;2,13;45,51;35,33;26,84;4,16;6,77;15,9
07.01.2024 07:00;-3,2;4,81;313,4;7,53;15,72;122,86;2,13;44,73;34,35;26,59;4,16;6,66;15,8
07.01.2024 08:00;-3,8;4,75;315,0;7,53;15,71;122,64;2,14;44,15;33,35;26,21;4,14;6,54;15,5
07.01.2024 09:00;-4,1;4,69;316,7;7,53;15,76;122,77;2,13;43,48;32,39;25,88;4,12;6,44;15,3
07.01.2024 10:00;-3,9;4,60;318,8;7,54;15,83;123,10;2,13;43,10;31,67;25,65;4,14;6,31;15,2
07.01.2024 11:00;-3,5;4,60;320,9;7,54;15,82;122,98;2,13;42,38;30,76;25,24;4,12;6,14;15,0
07.01.2024 12:00;-3,0;4,50;322,7;7,54;15,89;123,22;2,12;41,96;30,11;25,04;4,08;6,09;14,9
07.01.2024 13:00;-2,3;4,50;324,6;7,54;15,89;123,19;2,11;41,17;29,31;24,85;4,00;6,04;14,8
07.01.2024 14:00;-2,1;4,50;326,8;7,54;15,89;123,19;2,12;40,64;28,42;24,58;3,94;5,99;14,7
07.01.2024 15:00;-2,1;4,50;329,2;7,54;15,89;123,24;2,12;39,90;27,15;24,29;3,92;5,87;14,5
07.01.2024 16:00;-2,2;4,40;331,1;7,55;15,93;123,22;2,13;39,79;26,69;24,03;3,91;5,76;14,4
07.01.2024 17:00;-2,4;4,40;332,3;7,55;15,94;123,29;2,13;39,23;26,10;23,68;3,87;5,64;14,2
07.01.2024 18:00;-2,7;4,31;333,1;7,55;15,92;122,87;2,13;38,81;25,60;23,52;3,84;5,62;14,1
07.01.2024 19:00;-2,9;4,30;334,4;7,55;16,00;123,42;2,13;38,54;25,21;23,43;3,79;5,68;14,0
07.01.2024 20:00;-2,9;4,23;336,3;7,55;16,02;123,39;2,14;38,28;24,74;23,23;3,78;5,61;13,8
07.01.2024 21:00;-2,7;4,20;337,3;7,55;16,02;123,31;2,13;37,82;24,21;23,12;3,80;5,52;13,8
07.01.2024 22:00;-4,0;4,20;338,2;7,55;16,05;123,52;2,13;37,42;23,79;22,97;3,81;5,40;13,8
07.01.2024 23:00;-5,7;4,16;339,5;7,55;16,07;123,50;2,14;37,14;23,36;22,61;3,78;5,28;13,6
08.01.2024 00:00;-7,1;4,09;340,7;7,56;16,10;123,57;2,11;36,63;22,99;22,43;3,74;5,25;13,4
08.01.2024 01:00;-7,5;4,00;342,3;7,56;16,11;123,34;2,12;36,38;22,60;22,33;3,71;5,23;13,4
08.01.2024 02:00;-7,8;3,96;343,3;7,55;16,10;123,16;2,11;36,09;22,30;22,24;3,66;5,25;13,3
08.01.2024 03:00;-8,4;3,90;344,2;7,55;16,10;122,95;2,12;35,89;21,99;22,23;3,62;5,24;13,4
08.01.2024 04:00;-8,9;3,81;345,0;7,56;16,20;123,43;2,13;35,83;21,94;22,25;3,60;5,25;13,4
08.01.2024 05:00;-9,5;3,72;346,0;7,56;16,21;123,20;2,12;35,59;21,67;22,08;3,58;5,17;13,3
08.01.2024 06:00;-10,4;3,64;346,8;7,56;16,21;122,93;2,11;35,31;21,49;21,88;3,54;5,09;13,2
08.01.2024 07:00;-10,7;3,56;347,0;7,56;16,27;123,14;2,10;35,12;21,55;22,00;3,54;5,14;13,3
08.01.2024 08:00;-10,6;3,45;347,6;7,56;16,34;123,28;2,12;35,51;21,61;22,10;3,58;5,13;13,4
08.01.2024 09:00;-10,4;3,37;348,0;7,56;16,34;123,11;2,11;35,16;21,48;22,06;3,60;5,07;13,4
08.01.2024 10:00;-9,8;3,28;349,2;7,56;16,40;123,24;2,12;35,12;21,30;21,98;3,60;5,04;13,3
08.01.2024 11:00;-8,7;3,20;351,4;7,56;16,47;123,48;2,12;34,88;21,07;22,33;3,81;5,00;13,5
08.01.2024 12:00;-7,3;3,12;352,9;7,56;16,50;123,51;2,13;34,77;20,85;22,25;3,77;4,98;13,5
08.01.2024 13:00;-5,8;3,10;353,0;7,56;16,55;123,80;2,14;34,66;20,85;22,21;3,75;4,96;13,5
08.01.2024 14:00;-4,8;3,10;354,0;7,56;16,56;123,86;2,12;34,53;20,89;22,22;3,74;4,97;13,5
08.01.2024 15:00;-4,6;3,04;354,5;7,55;16,56;123,67;2,14;34,64;20,76;22,23;3,75;4,97;13,5
08.01.2024 16:00;-5,0;2,99;355,9;7,55;16,59;123,76;2,13;34,57;20,63;22,19;3,80;4,88;13,5
08.01.2024 17:00;-5,8;2,90;357,8;7,55;16,64;123,82;2,14;34,72;20,88;22,31;3,83;4,87;13,6
08.01.2024 18:00;-6,6;2,81;358,0;7,56;16,68;123,82;2,13;34,22;20,88;22,29;3,88;4,77;13,6
08.01.2024 19:00;-7,0;2,77;358,0;7,56;16,72;123,97;2,14;34,13;20,29;22,17;3,93;4,66;13,6
08.01.2024 20:00;-7,9;2,70;358,4;7,56;16,73;123,80;2,13;33,85;20,12;22,12;3,94;4,63;13,5
08.01.2024 21:00;-8,7;2,62;359,4;7,56;16,77;123,88;2,14;33,85;20,03;22,12;3,96;4,61;13,6
08.01.2024 22:00;-9,1;2,55;360,4;7,56;16,81;123,95;2,14;33,47;19,77;22,12;3,98;4,55;13,6
08.01.2024 23:00;-9,5;2,50;361,6;7,56;16,81;123,76;2,13;33,38;19,73;22,00;3,99;4,46;13,5
09.01.2024 00:00;-10,1;2,40;361,8;7,56;16,87;123,91;2,14;33,43;19,76;21,95;4,01;4,44;13,5
09.01.2024 01:00;-10,8;2,31;360,7;7,56;16,92;123,95;2,14;33,49;19,75;21,97;4,03;4,41;13,5
09.01.2024 02:00;-10,9;2,23;360,0;7,56;16,96;124,03;2,13;33,11;19,61;21,90;3,98;4,45;13,5
09.01.2024 03:00;-11,1;2,14;360,0;7,56;16,99;123,95;2,14;33,14;19,56;21,74;3,84;4,49;13,4
09.01.2024 04:00;-11,5;2,06;360,0;7,55;17,01;123,81;2,14;33,04;19,51;21,70;3,96;4,37;13,4
09.01.2024 05:00;-12,0;1,99;360,3;7,55;17,01;123,63;2,14;33,12;19,52;21,78;4,06;4,31;13,4
09.01.2024 06:00;-12,3;1,90;361,0;7,55;17,03;123,41;2,17;33,25;19,52;21,90;4,06;4,39;13,5
09.01.2024 07:00;-12,7;1,82;362,0;7,55;17,06;123,37;2,16;33,32;19,47;22,01;4,07;4,44;13,5
09.01.2024 08:00;-12,6;1,76;362,0;7,55;17,07;123,31;2,16;33,08;19,52;22,00;4,08;4,43;13,5
09.01.2024 09:00;-12,2;#;#;#;#;#;#;#;#;#;#;#;#
09.01.2024 10:00;-11,0;#;#;#;#;#;#;#;#;#;#;#;#
09.01.2024 11:00;-10,1;#;#;#;#;#;#;#;#;#;#;#;#
09.01.2024 12:00;-8,6;1,50;361,0;7,52;17,26;123,79;2,14;31,78;19,33;23,11;3,71;4,98;13,6
09.01.2024 13:00;-7,3;1,50;361,5;7,52;17,34;124,34;2,13;31,49;19,16;22,60;3,37;5,03;13,6
09.01.2024 14:00;-6,3;1,50;362,7;7,52;17,39;124,72;2,14;31,47;19,09;22,12;3,13;5,15;13,4
09.01.2024 15:00;-5,5;1,50;364,0;7,52;17,42;124,96;2,16;31,27;18,64;21,65;2,96;5,15;13,2
09.01.2024 16:00;-5,4;1,49;365,8;7,52;17,43;124,98;2,15;31,00;18,32;21,33;2,85;5,15;13,1
09.01.2024 17:00;-6,9;1,40;367,6;7,52;17,44;124,75;2,15;31,13;18,25;21,23;2,79;5,19;13,1
09.01.2024 18:00;-8,7;1,34;367,9;7,52;17,46;124,74;2,14;31,08;18,21;21,20;2,75;5,26;13,2
09.01.2024 19:00;-9,6;1,30;368,0;7,52;17,47;124,61;2,13;31,19;17,99;20,97;2,75;4,99;13,3
09.01.2024 20:00;-10,1;1,25;368,1;7,52;17,48;124,54;2,11;31,07;17,91;20,89;2,74;4,88;13,3
09.01.2024 21:00;-10,4;1,20;368,0;7,51;17,47;124,33;2,12;31,04;17,75;20,70;2,71;4,87;13,1
09.01.2024 22:00;-10,0;1,14;368,9;7,51;17,48;124,16;2,12;31,00;17,74;20,63;2,67;4,96;13,0
09.01.2024 23:00;-10,5;1,10;369,7;7,51;17,47;123,99;2,12;30,94;17,77;20,72;2,62;5,24;12,9
10.01.2024 00:00;-11,2;1,04;369,3;7,51;17,50;124,00;2,12;30,93;17,81;21,20;2,57;5,91;12,7
10.01.2024 01:00;-11,5;1,00;369,1;7,51;17,53;124,04;2,10;30,73;17,83;21,16;2,55;5,91;12,7
10.01.2024 02:00;-11,3;0,90;369,5;7,51;17,55;123,91;2,11;30,82;17,84;21,07;2,52;5,92;12,6
10.01.2024 03:00;-11,6;0,84;369,0;7,51;17,58;123,88;2,11;30,67;17,85;21,00;2,49;5,90;12,6
10.01.2024 04:00;-11,8;0,80;369,1;7,51;17,59;123,84;2,10;30,70;17,89;20,89;2,46;5,90;12,5
10.01.2024 05:00;-11,9;0,72;370,0;7,51;17,62;123,76;2,11;30,77;17,93;20,76;2,40;5,80;12,6
10.01.2024 06:00;-12,3;0,70;370,2;7,51;17,61;123,68;2,11;30,81;17,94;20,67;2,38;5,78;12,5
10.01.2024 07:00;-12,4;0,60;371,0;7,51;17,63;123,50;2,10;30,66;17,86;20,59;2,34;5,80;12,4
10.01.2024 08:00;-12,4;0,59;371,9;7,51;17,66;123,64;2,11;30,59;17,72;20,49;2,29;5,81;12,4
10.01.2024 09:00;-12,3;0,50;372,0;7,51;17,67;123,40;2,10;30,35;17,68;20,44;2,26;5,82;12,4
10.01.2024 10:00;-10,2;0,50;372,0;7,51;17,70;123,61;2,10;30,22;17,65;20,43;2,25;5,87;12,3
10.01.2024 11:00;-8,2;0,50;372,3;7,51;17,71;123,72;2,10;30,13;17,57;20,37;2,21;5,88;12,3
10.01.2024 12:00;-6,4;0,50;373,0;7,51;17,72;123,74;2,12;30,03;17,45;20,24;2,13;5,89;12,2
10.01.2024 13:00;-4,4;0,53;373,6;7,51;17,71;123,83;2,10;29,57;17,26;20,09;2,05;5,90;12,1
10.01.2024 14:00;-3,0;0,60;375,3;7,50;17,70;123,99;2,11;29,58;17,06;19,99;1,99;5,92;12,1
10.01.2024 15:00;-2,4;0,60;377,0;7,50;17,70;123,94;2,09;29,45;16,96;19,94;2,00;5,87;12,1
10.01.2024 16:00;-3,2;0,60;378,6;7,50;17,71;124,00;2,09;29,45;16,77;19,87;2,02;5,81;12,0
10.01.2024 17:00;-5,3;0,60;380,4;7,50;17,72;124,08;2,09;29,61;16,58;19,88;2,09;5,73;12,1
10.01.2024 18:00;-6,7;0,60;383,1;7,50;17,73;124,20;2,10;30,10;16,62;20,00;2,15;5,72;12,1
10.01.2024 19:00;-7,6;0,53;385,3;7,50;17,74;124,03;2,08;30,71;16,69;20,08;2,19;5,78;12,1
10.01.2024 20:00;-8,5;0,50;386,0;7,50;17,73;123,83;2,07;30,89;16,42;20,02;2,22;5,74;12,1
10.01.2024 21:00;-9,2;0,50;385,8;7,50;17,71;123,71;2,07;30,76;16,11;19,89;2,25;5,65;12,0
10.01.2024 22:00;-9,8;0,50;385,0;7,49;17,69;123,59;2,08;30,41;15,84;19,74;2,23;5,59;11,9
10.01.2024 23:00;-9,9;0,50;384,8;7,49;17,70;123,61;2,08;30,36;16,32;19,79;2,25;5,59;11,9
11.01.2024 00:00;-9,8;0,65;384,0;7,44;17,13;120,13;2,10;31,62;21,18;21,28;2,23;6,28;12,8
11.01.2024 01:00;-10,2;0,62;384,0;7,43;17,04;119,42;2,09;29,03;14,47;19,05;2,03;5,46;11,6
11.01.2024 02:00;-10,6;0,60;384,9;7,44;17,17;120,22;2,07;28,66;13,78;18,84;2,03;5,35;11,5
11.01.2024 03:00;-10,5;0,60;386,0;7,45;17,27;120,94;2,08;28,82;13,80;18,84;2,00;5,39;11,5
11.01.2024 04:00;-10,2;0,60;386,0;7,45;17,34;121,41;2,08;28,81;13,81;18,80;1,98;5,39;11,4
11.01.2024 05:00;-10,4;0,59;386,0;7,46;17,39;121,75;2,06;28,78;13,81;18,82;1,94;5,46;11,4
11.01.2024 06:00;-9,4;0,50;386,5;7,46;17,42;121,70;2,07;28,77;13,83;18,80;1,92;5,48;11,4
11.01.2024 07:00;-9,0;0,50;387,8;7,46;17,43;121,76;2,08;28,90;13,74;18,76;1,90;5,54;11,3
11.01.2024 08:00;-8,9;0,50;389,4;7,47;17,45;121,91;2,07;28,76;13,63;18,70;1,92;5,51;11,3
11.01.2024 09:00;-7,8;0,50;390,4;7,47;17,47;122,02;2,06;28,72;13,61;18,67;1,90;5,51;11,3
11.01.2024 10:00;-6,3;0,50;391,0;7,47;17,49;122,14;2,07;28,59;13,54;18,62;1,86;5,54;11,2
11.01.2024 11:00;-5,2;0,50;391,0;7,48;17,51;122,33;2,08;28,50;13,66;18,63;1,82;5,61;11,2
11.01.2024 12:00;-4,1;0,50;391,2;7,48;17,55;122,61;2,08;28,88;14,19;18,76;1,82;5,65;11,3
11.01.2024 13:00;-3,5;0,50;392,0;7,50;17,65;123,28;2,08;29,14;15,15;19,14;1,78;5,84;11,5
11.01.2024 14:00;-3,2;0,50;392,9;7,50;17,69;123,53;2,08;29,34;15,69;19,34;1,80;5,91;11,6
11.01.2024 15:00;-2,9;0,50;393,5;7,51;17,68;123,51;2,10;29,67;16,17;19,53;1,84;5,94;11,8
11.01.2024 16:00;-3,0;0,50;394,7;7,51;17,68;123,45;2,09;29,67;16,26;19,56;1,85;5,94;11,8
11.01.2024 17:00;-2,9;0,50;396,1;7,51;17,67;123,40;2,11;29,71;16,30;19,59;1,85;5,97;11,8
11.01.2024 18:00;-2,8;0,50;397,6;7,51;17,66;123,37;2,11;29,78;16,66;19,73;1,86;6,00;11,9
11.01.2024 19:00;-2,7;0,53;399,2;7,52;17,66;123,46;2,11;29,68;16,79;19,76;1,89;5,99;11,9
11.01.2024 20:00;-2,6;0,60;400,5;7,52;17,65;123,64;2,12;29,53;16,75;19,74;1,91;5,96;11,9
11.01.2024 21:00;-2,3;0,60;401,1;7,52;17,66;123,69;2,11;29,34;16,64;19,67;1,94;5,92;11,8
11.01.2024 22:00;-2,0;0,60;402,0;7,52;17,67;123,73;2,11;29,28;16,40;19,57;1,95;5,85;11,8
11.01.2024 23:00;-1,5;0,60;402,0;7,52;17,67;123,78;2,13;29,24;16,19;19,52;1,95;5,78;11,8
12.01.2024 00:00;-1,3;0,60;402,0;7,53;17,68;123,84;2,12;29,11;16,12;19,52;1,96;5,76;11,8
12.01.2024 01:00;-1,0;0,61;402,0;7,53;17,68;123,82;2,12;29,08;16,08;19,51;1,99;5,72;11,8
12.01.2024 02:00;-0,8;0,70;403,2;7,53;17,65;123,93;2,14;29,23;16,19;19,57;2,03;5,71;11,8
12.01.2024 03:00;-0,5;0,70;404,3;7,53;17,64;123,84;2,12;29,24;16,61;19,69;2,06;5,74;11,9
12.01.2024 04:00;-0,5;0,70;405,1;7,53;17,63;123,81;2,14;29,65;17,11;19,82;2,09;5,74;12,0
12.01.2024 05:00;-0,8;0,70;405,9;7,53;17,62;123,73;2,12;29,45;17,21;19,77;2,09;5,72;12,0
12.01.2024 06:00;-0,7;0,75;405,0;7,53;17,61;123,84;2,12;29,51;17,16;19,77;2,11;5,70;12,0
12.01.2024 07:00;-0,5;0,80;404,5;7,53;17,60;123,94;2,11;29,42;17,30;19,81;2,13;5,71;12,0
12.01.2024 08:00;-0,3;0,80;403,8;7,53;17,60;123,91;2,09;29,28;17,43;19,85;2,14;5,72;12,0
12.01.2024 09:00;-0,2;#;#;#;#;#;#;#;#;#;#;#;#
12.01.2024 10:00;0,0;#;#;#;#;#;#;#;#;#;#;#;#
12.01.2024 11:00;0,2;#;#;#;#;#;#;#;#;#;#;#;#
12.01.2024 12:00;0,0;1,00;402,0;7,51;17,49;123,79;2,14;28,28;16,39;20,84;2,74;5,58;12,3
12.01.2024 13:00;-0,5;1,07;401,3;7,52;17,48;123,95;2,13;28,30;16,33;21,01;3,01;5,28;12,5
12.01.2024 14:00;-0,4;1,10;401,0;7,52;17,47;123,99;2,15;28,38;16,43;21,12;3,27;4,92;12,7
12.01.2024 15:00;-0,5;1,15;399,9;7,53;17,46;124,06;2,14;28,25;16,36;20,62;3,40;4,16;12,9
12.01.2024 16:00;-0,9;1,20;398,3;7,53;17,43;124,03;2,15;28,19;16,36;20,77;3,51;4,17;12,9
12.01.2024 17:00;-0,9;1,20;397,8;7,53;17,40;123,79;2,14;28,02;16,22;21,03;3,54;4,53;12,8
12.01.2024 18:00;-0,9;1,22;398,4;7,52;17,35;123,56;2,14;27,95;16,19;21,11;3,67;4,41;12,9
12.01.2024 19:00;-0,8;1,30;398,0;7,53;17,34;123,72;2,14;28,11;16,21;21,21;3,79;4,31;13,0
12.01.2024 20:00;-0,6;1,30;398,0;7,53;17,32;123,56;2,15;27,98;16,12;21,35;3,94;4,21;13,0
12.01.2024 21:00;-0,3;1,30;398,6;7,53;17,28;123,27;2,15;27,93;16,01;21,44;4,06;4,12;13,1
12.01.2024 22:00;-0,1;1,38;400,5;7,53;17,24;123,28;2,15;27,66;15,85;21,56;4,12;4,10;13,2
12.01.2024 23:00;0,2;1,40;402,2;7,53;17,19;123,00;2,16;27,73;15,72;21,54;4,21;3,93;13,3
13.01.2024 00:00;0,5;1,44;404,6;7,53;17,14;122,73;2,17;27,81;15,57;21,51;4,26;3,80;13,3
13.01.2024 01:00;0,7;1,50;406,3;7,53;17,09;122,58;2,16;27,46;15,47;21,39;4,27;3,74;13,3
13.01.2024 02:00;0,9;1,53;406,0;7,53;17,04;122,33;2,16;27,60;15,40;21,25;4,29;3,64;13,2
13.01.2024 03:00;1,0;1,60;406,2;7,53;17,00;122,26;2,17;27,74;15,47;21,21;4,29;3,62;13,2
13.01.2024 04:00;1,1;1,65;406,3;7,53;16,96;122,12;2,16;27,72;15,62;21,18;4,31;3,63;13,1
13.01.2024 05:00;1,2;1,70;406,0;7,53;16,94;122,12;2,16;27,77;15,74;21,18;4,38;3,56;13,1
13.01.2024 06:00;1,1;1,75;407,0;7,54;16,93;122,25;2,16;27,74;15,81;21,17;4,40;3,50;13,2
13.01.2024 07:00;1,2;1,80;409,0;7,55;16,92;122,35;2,17;27,66;15,65;21,08;4,42;3,39;13,2
13.01.2024 08:00;1,2;1,80;411,1;7,55;16,92;122,31;2,19;27,63;15,55;21,00;4,44;3,31;13,2
13.01.2024 09:00;1,1;1,86;411,9;7,55;16,89;122,27;2,19;27,47;15,67;20,99;4,44;3,27;13,2
13.01.2024 10:00;1,3;1,90;411,7;7,56;16,86;122,23;2,18;27,63;15,84;20,94;4,42;3,26;13,2